User: anonymous   Login
Location: Unspecified
(0.0000°N, 0.0000°E)
Time: 12:00:40
(UTC+02:00)
Language:

Cosmos 1892 Rocket - Orbit

View from above orbital plane
View from above orbital plane
View from above satellite
View from above satellite

Ground track
Ground track

The orbit data is extracted from the following two-line orbital elements,

1 18422U 87088B   15141.57048041  .00000342  00000-0  39229-4 0  9997
2 18422 082.5107 166.6985 0021031 057.0237 057.6906 14.82714599489547
Epoch (UTC): 21 May 2015 13:41:29
Eccentricity: 0.0021031
inclination: 82.5107°
perigee height: 606 km
apogee height: 635 km
right ascension of ascending node: 166.6985°
argument of perigee: 57.0237°
revolutions per day: 14.82714599
mean anomaly at epoch: 57.6906°
orbit number at epoch: 48954

The dashed part of the orbit path shows where the satellite is in the earth's shadow,  

DLR